Weather Roundup
Issued by NWS

Home | Current Version | Previous Version | Text Only | Print | Product List | Glossary On
Versions: 1 2 3 4 5 6 7 8 9 10 11 12 13 14 15 16 17 18 19 20 21 22 23 24 25 26 27 28 29 30 31 32 33 34 35 36 37 38 39 40 41 42 43 44 45 46 47 48 49 50
000
NZUS93 KARX 250059
HRRWXR

CURRENT HOURLY OBSERVATIONS ACROSS
MUCH OF THE UPPER MISSISSIPPI VALLEY
NATIONAL WEATHER SERVICE LA CROSSE WI
800 PM CDT MON APR 24 2017


...SOUTHEAST MINNESOTA...


CITY           SKY/WX    TMP DP  RH WIND       PRES   REMARKS
ROCHESTER      CLOUDY    61  33  35 SE12      29.62S
ROCHESTER/MAYO FAIR      66  31  26 SE12      29.60F
WINONA         CLOUDY    66  34  30 SE6       29.63R
AUSTIN         MOCLDY    63  30  29 S7        29.59S
ALBERT LEA     CLOUDY    63  28  27 S9        29.58R
DODGE CENTER   CLOUDY    63  30  29 SE8       29.60S
PRESTON        MOCLDY    64  29  27 SE12      29.62F
OWATONNA       CLOUDY    64  30  27 SE8       29.59R
FARIBAULT      CLOUDY    66  34  30 SE10      29.58F
$$

...ELSEWHERE IN MINNESOTA...


CITY           SKY/WX    TMP DP  RH WIND       PRES   REMARKS
MINNEAPOLIS    CLOUDY    68  31  25 S13       29.56F
INTNL FALLS    LGT RAIN  36  34  92 E16G25    29.67S FOG     WCI  26
DULUTH         CLOUDY    36  32  85 E15       29.68R WCI  27
RED WING       MOCLDY    68  27  21 S10       29.60F
REDWOOD FALLS  CLOUDY    63  41  44 S13       29.50F
MANKATO        CLOUDY    66  31  27 S9        29.55F
WORTHINGTON    CLOUDY    62  44  51 S7        29.51F
FAIRMONT       CLOUDY    64  36  35 S9        29.53F
$$

...SOUTHWEST WISCONSIN...


CITY           SKY/WX    TMP DP  RH WIND       PRES   REMARKS
LA CROSSE      CLOUDY    69  32  25 SE7       29.62F
PRAIRIE DU CHI CLOUDY    70  22  16 SE10      29.64F
BOSCOBEL       MOCLDY    72  23  16 VRB5      29.67F
LONE ROCK      NOT AVBL
PLATTEVILLE    PTCLDY    66  32  27 SE8       29.70S
FORT MC COY    CLOUDY    67  29  24 SE9       29.67F
MAUSTON-NEW LI CLOUDY    66  33  29 SE6       29.69S
VIROQUA        FAIR      65  27  23 SE12      29.66F
WIS DELLS      PTCLDY    66  26  22 SE8       29.72S
$$

...ELSEWHERE IN WISCONSIN...


CITY           SKY/WX    TMP DP  RH WIND       PRES   REMARKS
MILWAUKEE      CLOUDY    54  31  41 SE5       29.79F
MADISON        CLOUDY    63  33  32 SE12      29.74R
GREEN BAY      CLOUDY    57  36  45 SE8       29.80R
EAU CLAIRE     NOT AVBL
BLACK RVR FLS  FAIR      67  26  21 CALM      29.66S
MEDFORD        PTCLDY    60  34  37 SE6       29.69S
WAUSAU         CLOUDY    62  32  32 SE13      29.69F
WIS RAPIDS     NOT AVBL
MARSHFIELD     CLOUDY    63  31  30 SE10      29.68F
RICE LAKE      CLOUDY    63  32  30 SE9       29.64S
$$

...NORTHEAST IOWA...


CITY           SKY/WX    TMP DP  RH WIND       PRES   REMARKS
WATERLOO       CLOUDY    69  25  19 S13       29.61S
DUBUQUE        CLOUDY    66  29  24 SE12      29.69F
DECORAH        CLOUDY    66  28  24 SE8       29.63R
MASON CITY     PTCLDY    64  31  28 S13       29.59S
CHARLES CITY   CLOUDY    68  25  19 S14       29.61S
OELWEIN        CLOUDY    68  30  24 S14       29.63F
$$

...ELSEWHERE IN IOWA...


CITY           SKY/WX    TMP DP  RH WIND       PRES   REMARKS
DES MOINES     CLOUDY    68  31  25 S8        29.59S
IOWA CITY      PTCLDY    70  29  21 SE9       29.65F
FORT DODGE     CLEAR     68  28  22 S13       29.57S
MARSHALLTOWN   CLOUDY    69  30  23 S14       29.60R
CEDAR RAPIDS   CLOUDY    69  28  21 SE12G22   29.63S
$$

...NORTHERN ILLINOIS...


CITY           SKY/WX    TMP DP  RH WIND       PRES   REMARKS
CHICAGO-OHARE  CLOUDY    61  32  33 E10       29.76F
CHICAGO-MIDWAY MOCLDY    61  34  36 E10       29.78F
MOLINE         CLOUDY    63  35  35 SE6       29.68S
ROCKFORD       PTCLDY    66  30  26 E8        29.75S
PEORIA         CLEAR     70  24  17 SE8       29.70F
$$

NOTE: "FAIR" INDICATES FEW OR NO CLOUDS BELOW 12,000 FEET WITH NO
SIGNIFICANT WEATHER AND/OR OBSTRUCTIONS TO VISIBILITY. WIND
SPEEDS ARE IN MILES-PER-HOUR.




USA.gov is the U.S. government's official web portal to all federal, state and local government web resources and services.